Location: Binningen
(47.7924°N, 8.7261°E)
Time: 03:14:36
(UTC+00:00)

Cosmos 1898 Rocket - Pass Details

Date: 17 May 2021
Orbit: 753 x 784 km, 74.0° (Epoch: 14 June)

Event Time Altitude Azimuth Distance (km) Brightness Sun altitude
Exits shadow 20:43:47 - 197° (SSW) 2,992 6.2 -14.0°
Reaches altitude 10° 20:45:30 10° 196° (SSW) 2,324 5.7 -14.1°
Maximum altitude 20:50:47 81° 111° (ESE) 798 3.5 -14.7°
Drops below altitude 10° 20:56:09 10° 24° (NNE) 2,351 6.4 -15.2°
Sets 20:58:33 0° 24° (NNE) 3,285 7.2 -15.4°
